Weather Roundup
Issued by NWS

Home | Current Version | Previous Version | Text Only | Print | Product List | Glossary On
Versions: 1 2 3 4 5 6 7 8 9 10 11 12 13 14 15 16 17 18 19 20 21 22 23 24 25 26 27 28 29 30 31 32 33 34 35 36 37 38 39 40 41 42 43 44 45 46 47 48 49 50
898
NZUS93 KARX 231359
HRRWXR

CURRENT HOURLY OBSERVATIONS ACROSS
MUCH OF THE UPPER MISSISSIPPI VALLEY
NATIONAL WEATHER SERVICE LA CROSSE WI
900 AM CDT FRI JUN 23 2017


...SOUTHEAST MINNESOTA...


CITY           SKY/WX    TMP DP  RH WIND       PRES   REMARKS
ROCHESTER      SUNNY     65  53  65 NW15      29.82R
ROCHESTER/MAYO FAIR     N/A N/A N/A W13G18    29.80R
WINONA         SUNNY     70  59  68 NW9G17    29.76R
AUSTIN         SUNNY     64  52  63 W13G22    29.82R
ALBERT LEA     SUNNY     63  52  67 NW9G21    29.84S
DODGE CENTER   SUNNY     63  52  67 NW12G20   29.82R
PRESTON        SUNNY     65  54  68 NW15G24   29.80R
OWATONNA       SUNNY     63  54  72 W16       29.83R
FARIBAULT      SUNNY     63  52  67 W13G20    29.82R
$$

...ELSEWHERE IN MINNESOTA...


CITY           SKY/WX    TMP DP  RH WIND       PRES   REMARKS
MINNEAPOLIS    MOSUNNY   65  50  58 NW17      29.78R
INTNL FALLS    LGT RAIN  56  50  80 NW14G25   29.66R
DULUTH         PTSUNNY   59  51  75 NW15      29.67R
RED WING       SUNNY     64  54  68 NW8       29.76S
REDWOOD FALLS  PTSUNNY   62  52  69 NW17      29.86R
MANKATO        SUNNY     63  51  65 NW15G21   29.85R
WORTHINGTON    MOSUNNY   61  51  70 NW21G28   29.93R
FAIRMONT       CLOUDY    62  51  67 NW15      29.88R
$$

...SOUTHWEST WISCONSIN...


CITY           SKY/WX    TMP DP  RH WIND       PRES   REMARKS
LA CROSSE      SUNNY     70  60  70 SW6       29.74R
PRAIRIE DU CHI MOSUNNY   68  63  82 W3        29.77R
BOSCOBEL       PTSUNNY   66  65  96 SW7       29.77R
LONE ROCK      NOT AVBL
PLATTEVILLE    PTSUNNY   68  67  94 W6        29.78R
FORT MC COY    MOSUNNY   62  62 100 W7        29.74R
MAUSTON-NEW LI CLOUDY    67  62  84 W7        29.72S
VIROQUA        FAIR      64  64 100 W6        29.77R
WIS DELLS      PTSUNNY   66  63  88 W6        29.73S
$$

...ELSEWHERE IN WISCONSIN...


CITY           SKY/WX    TMP DP  RH WIND       PRES   REMARKS
MILWAUKEE      CLOUDY    69  62  78 NW9       29.69R
MADISON        PTSUNNY   70  62  76 N5        29.73R
GREEN BAY      MOSUNNY   70  63  78 W9        29.67R
EAU CLAIRE     NOT AVBL
BLACK RVR FLS  FAIR      69  64  85 W8        29.73R
MEDFORD        SUNNY     62  54  75 W10       29.71S
WAUSAU         CLOUDY    68  58  70 W8        29.68S
WIS RAPIDS     CLOUDY    67  61  81 W8        29.72S
MARSHFIELD     SUNNY     66  59  78 W10       29.71R
RICE LAKE      SUNNY     63  49  61 W10       29.74R
$$

...NORTHEAST IOWA...


CITY           SKY/WX    TMP DP  RH WIND       PRES   REMARKS
WATERLOO       SUNNY     70  59  68 W7        29.81S
DUBUQUE        CLOUDY    69  62  78 NW8       29.79R
DECORAH        SUNNY     68  61  77 VRB6      29.79R
MASON CITY     SUNNY     65  51  60 NW16      29.86R
CHARLES CITY   SUNNY     68  57  68 W14G21    29.82S
OELWEIN        SUNNY     70  63  78 W10       29.82R
$$

...ELSEWHERE IN IOWA...


CITY           SKY/WX    TMP DP  RH WIND       PRES   REMARKS
DES MOINES     MOSUNNY   73  56  54 N5        29.85F
IOWA CITY      PTSUNNY   72  64  76 NW6       29.81R
FORT DODGE     PTSUNNY   64  52  63 NW9G16    29.89S
MARSHALLTOWN   SUNNY     70  59  68 W9        29.84S
CEDAR RAPIDS   PTSUNNY   69  67  93 NW12      29.81R
$$

...NORTHERN ILLINOIS...


CITY           SKY/WX    TMP DP  RH WIND       PRES   REMARKS
CHICAGO-OHARE  CLOUDY    69  62  78 N6        29.70S
CHICAGO-MIDWAY CLOUDY    69  65  86 N6        29.70S
MOLINE         CLOUDY    71  61  70 N6        29.76R
ROCKFORD       CLOUDY    70  62  76 N9        29.75R
PEORIA         LGT RAIN  70  68  93 NE8       29.71S
$$

NOTE: "FAIR" INDICATES FEW OR NO CLOUDS BELOW 12,000 FEET WITH NO
SIGNIFICANT WEATHER AND/OR OBSTRUCTIONS TO VISIBILITY. WIND
SPEEDS ARE IN MILES-PER-HOUR.




USA.gov is the U.S. government's official web portal to all federal, state and local government web resources and services.